Weather History for Westhampton Beach, NY

Change the Weather History Date:

Saturday, January 19, 2013

  Actual Average Record
Temperature  
Mean Temperature 30 °F -  
Max Temperature 46 °F 33 °F 50 °F (1999)
Min Temperature 15 °F 17 °F -2 °F (2005)
Degree Days  
Heating Degree Days 34    
Moisture  
Dew Point 29 °F    
Average Humidity 60    
Maximum Humidity 74    
Minimum Humidity 50    
Precipitation  
Precipitation 0.00 in - - ()
Sea Level Pressure  
Sea Level Pressure 30.21 in    
Wind  
Wind Speed 11 mph (SW)    
Max Wind Speed 22 mph    
Max Gust Speed 36 mph    
Visibility 10 miles    
Events      
Averages and records for this station are not official NWS values.
T = Trace of Precipitation, MM = Missing Value Source: NWS Daily Summary

Daily Weather History Graph

Daily Weather History Graph

Search for Another Location

Airport:

Trip Planner

Search our weather history database for the weather conditions in past years. The results will help you decide how hot, cold, wet, or windy it might be!

Date:

Astronomy

Jan. 19, 2013 Rise Set
Actual Time 7:10 AM EST 4:52 PM EST
Civil Twilight 6:40 AM EST 5:22 PM EST
Nautical Twilight 6:07 AM EST 5:55 PM EST
Astronomical Twilight 5:34 AM EST 6:28 PM EST
Moon 11:17 AM EST (1/19) 12:41 AM EST (1/19)
Length of Visible Light 10h 41m
Length of Day
9h 41m
First Quarter, 57% of the Moon is Illuminated
Jan 19
First Quarter
Jan 26
Full
Feb 3
Last Quarter
Feb 10
New
Feb 17
First Quarter

Hourly Weather History & Observations

Time (EST) Temp. Windchill Dew Point Humidity Pressure Visibility Wind Dir Wind Speed Gust Speed Precip Events Conditions
12:53 AM 15.1 °F - 8.1 °F 74% 30.42 in 10.0 mi Calm Calm - N/A   Clear
1:53 AM 34.0 °F 26.0 °F 19.9 °F 56% 30.42 in 10.0 mi SW 10.4 mph - N/A   Partly Cloudy
2:53 AM 35.1 °F 25.9 °F 21.0 °F 57% 30.40 in 10.0 mi SW 13.8 mph 20.7 mph N/A   Clear
3:53 AM 36.0 °F 26.7 °F 19.9 °F 52% 30.37 in 10.0 mi SW 15.0 mph 21.9 mph N/A   Clear
4:53 AM 37.0 °F 30.4 °F 21.9 °F 54% 30.36 in 10.0 mi SW 9.2 mph 19.6 mph N/A   Clear
5:53 AM 37.9 °F 30.5 °F 24.1 °F 57% 30.34 in 10.0 mi SSW 11.5 mph 23.0 mph N/A   Clear
6:53 AM 39.0 °F 31.4 °F 27.0 °F 62% 30.32 in 10.0 mi SW 12.7 mph 25.3 mph N/A   Clear
7:53 AM 41.0 °F 31.4 °F 27.0 °F 57% 30.32 in 10.0 mi SW 21.9 mph 32.2 mph N/A   Clear
8:53 AM 43.0 °F 35.1 °F 28.0 °F 56% 30.32 in 10.0 mi SW 17.3 mph 26.5 mph N/A   Clear
9:53 AM 45.0 °F 37.9 °F 28.9 °F 53% 30.30 in 10.0 mi SW 16.1 mph 35.7 mph N/A   Clear
10:53 AM 46.0 °F 38.3 °F 30.0 °F 54% 30.26 in 10.0 mi SW 20.7 mph 33.4 mph N/A   Clear
11:53 AM 46.9 °F - 30.0 °F 52% 30.22 in 10.0 mi SW 15.0 mph 33.4 mph N/A   Clear
12:53 PM 46.9 °F - 30.0 °F 52% 30.17 in 10.0 mi SW 17.3 mph 29.9 mph N/A   Clear
1:53 PM 46.9 °F - 28.9 °F 50% 30.14 in 10.0 mi SW 20.7 mph 33.4 mph N/A   Clear
2:53 PM 46.9 °F - 30.9 °F 54% 30.13 in 10.0 mi SW 17.3 mph 26.5 mph N/A   Clear
3:53 PM 46.9 °F - 32.0 °F 56% 30.11 in 10.0 mi SW 13.8 mph 27.6 mph N/A   Clear
4:53 PM 45.0 °F 38.9 °F 33.1 °F 63% 30.09 in 10.0 mi SW 12.7 mph 21.9 mph N/A   Clear
5:53 PM 44.1 °F 38.6 °F 34.0 °F 68% 30.09 in 10.0 mi SW 10.4 mph - N/A   Clear
6:53 PM 44.1 °F 39.5 °F 35.1 °F 71% 30.08 in 10.0 mi SW 8.1 mph - N/A   Clear
7:53 PM 45.0 °F 38.9 °F 35.1 °F 68% 30.06 in 10.0 mi SW 12.7 mph 23.0 mph N/A   Clear
8:53 PM 45.0 °F 40.1 °F 35.1 °F 68% 30.05 in 10.0 mi SW 9.2 mph 19.6 mph N/A   Clear
9:53 PM 45.0 °F 38.9 °F 34.0 °F 65% 30.03 in 10.0 mi SW 12.7 mph 19.6 mph N/A   Clear
10:53 PM 46.0 °F 39.9 °F 34.0 °F 63% 30.00 in 10.0 mi SW 13.8 mph 24.2 mph N/A   Clear
11:53 PM 46.0 °F 39.9 °F 37.0 °F 71% 29.97 in 10.0 mi SW 13.8 mph 25.3 mph N/A   Clear